Location: Hains Lake
(37.8540°N, 99.8578°W)
Time: 05:03:18
(UTC+00:00)

Vanguard 2 Rocket - Pass Details

Date: 21 April 2021
Orbit: 553 x 3326 km, 32.9° (Epoch: 07 May)

Event Time Altitude Azimuth Distance (km) Brightness Sun altitude
Rises 01:21:58 0° 282° (WNW) 7,311 15.0 -1.2°
Reaches altitude 10° 01:27:20 10° 278° (W) 6,198 13.1 -2.2°
Maximum altitude 01:44:43 46° 214° (SSW) 3,189 9.8 -5.4°
Drops below altitude 10° 01:56:11 10° 145° (SE) 4,182 9.8 -7.5°
Enters shadow 01:58:12 - 140° (SE) 4,637 10.0 -7.9°
Sets 01:59:04 0° 139° (SE) 4,848 - -8.1°
